Mount Pleasant, IA

1:08 PM CDT on June 26, 2017 (GMT -0500)
Mount Pleasant Municipal

Weather History for KMPZ - May, 2014

Change the Weather History Date:

Saturday, May 3, 2014

  Actual Average Record
Temperature  
Mean Temperature 60 °F -  
Max Temperature 72 °F 67 °F 88 °F (1959)
Min Temperature 47 °F 45 °F 29 °F (1967)
Degree Days  
Heating Degree Days 6    
Growing Degree Days 10 (Base 50)    
Moisture  
Dew Point 35 °F    
Average Humidity 43    
Maximum Humidity 68    
Minimum Humidity 17    
Precipitation  
Precipitation 0.00 in - - ()
Sea Level Pressure  
Sea Level Pressure 29.87 in    
Wind  
Wind Speed 8 mph (WNW)    
Max Wind Speed 18 mph    
Max Gust Speed 26 mph    
Visibility 10 miles    
Events Rain    
Averages and records for this station are not official NWS values.
T = Trace of Precipitation, MM = Missing Value Source: NWS Daily Summary

Daily Weather History Graph

Daily Weather History Graph

Search for Another Location

Airport or City:

Trip Planner

Search our weather history database for the weather conditions in past years. The results will help you decide how hot, cold, wet, or windy it might be!

Date:

Astronomy

May. 03, 2014 Rise Set
Actual Time 6:01 AM CDT 8:04 PM CDT
Civil Twilight 5:31 AM CDT 8:35 PM CDT
Nautical Twilight 4:54 AM CDT 9:11 PM CDT
Astronomical Twilight 4:14 AM CDT 9:52 PM CDT
Moon 9:31 AM CDT (5/3) No Moon Set
Length of Visible Light 15h 03m
Length of Day
14h 03m
Waxing Crescent, 20% of the Moon is Illuminated
May 3
Waxing Crescent
May 6
First Quarter
May 14
Full
May 21
Last Quarter
May 28
New

Hourly Weather History & Observations

Time (CDT) Temp. Dew Point Humidity Pressure Visibility Wind Dir Wind Speed Gust Speed Precip Events Conditions
12:15 AM 55.6 °F 40.5 °F 57% 29.78 in 10.0 mi WNW 5.8 mph - N/A   Clear
12:35 AM 55.9 °F 40.1 °F 55% 29.78 in 10.0 mi WNW 6.9 mph - N/A   Clear
12:55 AM 55.8 °F 39.7 °F 55% 29.78 in 10.0 mi West 6.9 mph - N/A   Clear
1:15 AM 54.5 °F 39.7 °F 57% 29.78 in 10.0 mi WNW 6.9 mph - N/A   Clear
1:35 AM 53.6 °F 39.6 °F 59% 29.78 in 10.0 mi West 5.8 mph - N/A   Clear
1:55 AM 52.3 °F 39.2 °F 61% 29.78 in 10.0 mi West 5.8 mph - N/A   Clear
2:15 AM 51.8 °F 39.0 °F 62% 29.78 in 10.0 mi West 6.9 mph - N/A   Clear
2:35 AM 51.3 °F 39.0 °F 63% 29.78 in 10.0 mi West 6.9 mph - N/A   Clear
2:55 AM 50.4 °F 38.3 °F 63% 29.78 in 10.0 mi West 6.9 mph - N/A   Clear
3:15 AM 49.8 °F 38.3 °F 65% 29.79 in 10.0 mi West 5.8 mph - N/A   Clear
3:35 AM 49.6 °F 37.8 °F 64% 29.79 in 10.0 mi West 6.9 mph - N/A   Clear
3:55 AM 50.0 °F 37.8 °F 63% 29.80 in 10.0 mi West 6.9 mph - N/A   Clear
4:15 AM 49.6 °F 37.4 °F 63% 29.80 in 10.0 mi West 6.9 mph - N/A   Clear
4:35 AM 49.3 °F 37.4 °F 64% 29.80 in 10.0 mi West 6.9 mph - N/A   Clear
4:55 AM 48.7 °F 37.4 °F 65% 29.81 in 10.0 mi West 5.8 mph - N/A   Clear
5:15 AM 47.5 °F 36.9 °F 67% 29.82 in 10.0 mi West 5.8 mph - N/A   Clear
5:35 AM 47.7 °F 37.4 °F 68% 29.83 in 10.0 mi West 6.9 mph - N/A   Clear
5:55 AM 47.3 °F 37.4 °F 68% 29.83 in 10.0 mi West 5.8 mph - N/A   Clear
6:15 AM 47.3 °F 37.4 °F 68% 29.84 in 10.0 mi West 5.8 mph - N/A   Clear
6:35 AM 47.8 °F 37.4 °F 67% 29.85 in 10.0 mi West 6.9 mph - N/A   Clear
6:55 AM 48.9 °F 37.4 °F 64% 29.85 in 10.0 mi West 8.1 mph - N/A   Clear
7:15 AM 50.0 °F 37.8 °F 63% 29.86 in 10.0 mi West 6.9 mph - N/A   Clear
7:35 AM 51.6 °F 37.8 °F 59% 29.87 in 10.0 mi West 8.1 mph - N/A   Clear
7:55 AM 52.9 °F 37.9 °F 57% 29.87 in 10.0 mi West 8.1 mph - N/A   Clear
8:15 AM 53.8 °F 38.3 °F 56% 29.87 in 10.0 mi West 6.9 mph - N/A   Clear
8:35 AM 55.6 °F 38.5 °F 53% 29.88 in 10.0 mi West 6.9 mph - N/A   Clear
8:55 AM 57.2 °F 37.9 °F 49% 29.89 in 10.0 mi West 9.2 mph - N/A   Clear
9:15 AM 59.0 °F 37.8 °F 45% 29.90 in 10.0 mi West 11.5 mph - N/A   Clear
9:35 AM 60.1 °F 36.9 °F 42% 29.90 in 10.0 mi WNW 9.2 mph - N/A   Clear
9:55 AM 61.7 °F 35.8 °F 38% 29.90 in 10.0 mi West 8.1 mph - N/A   Clear
10:15 AM 62.8 °F 35.2 °F 36% 29.90 in 10.0 mi West 13.8 mph 17.3 mph N/A   Clear
10:35 AM 63.5 °F 33.4 °F 33% 29.90 in 10.0 mi West 12.7 mph 18.4 mph N/A   Clear
10:55 AM 64.2 °F 33.3 °F 32% 29.90 in 10.0 mi West 17.3 mph - N/A   Clear
11:15 AM 65.1 °F 31.5 °F 28% 29.90 in 10.0 mi West 13.8 mph 20.7 mph N/A   Clear
11:35 AM 65.5 °F 31.8 °F 28% 29.90 in 10.0 mi West 11.5 mph 19.6 mph N/A   Clear
11:55 AM 66.7 °F 32.7 °F 28% 29.91 in 10.0 mi WSW 17.3 mph 21.9 mph N/A   Clear
12:15 PM 66.6 °F 30.6 °F 26% 29.91 in 10.0 mi West 12.7 mph 24.2 mph N/A   Clear
12:35 PM 67.1 °F 31.1 °F 26% 29.91 in 10.0 mi West 17.3 mph 25.3 mph N/A   Clear
12:55 PM 68.2 °F 31.8 °F 26% 29.90 in 10.0 mi West 18.4 mph 24.2 mph N/A   Clear
1:15 PM 68.5 °F 32.4 °F 26% 29.90 in 10.0 mi West 11.5 mph 23.0 mph N/A   Clear
1:35 PM 70.0 °F 33.3 °F 26% 29.89 in 10.0 mi West 15.0 mph 20.7 mph N/A   Clear
1:55 PM 70.7 °F 32.0 °F 24% 29.88 in 10.0 mi West 13.8 mph - N/A   Clear
2:15 PM 71.4 °F 28.6 °F 20% 29.88 in 10.0 mi WSW 16.1 mph - N/A   Clear
2:35 PM 70.9 °F 29.7 °F 22% 29.89 in 10.0 mi West 15.0 mph 26.5 mph N/A   Clear
2:55 PM 71.8 °F 27.9 °F 20% 29.88 in 10.0 mi WSW 17.3 mph 25.3 mph N/A   Clear
3:15 PM 71.8 °F 26.4 °F 18% 29.88 in 10.0 mi WNW 12.7 mph 21.9 mph N/A   Clear
3:35 PM 71.8 °F 25.0 °F 17% 29.88 in 10.0 mi WNW 17.3 mph 21.9 mph N/A   Clear
3:55 PM 71.2 °F 26.2 °F 19% 29.88 in 10.0 mi WNW 12.7 mph 23.0 mph N/A   Clear
4:15 PM 71.1 °F 27.1 °F 19% 29.88 in 10.0 mi WNW 15.0 mph 25.3 mph N/A   Clear
4:35 PM 71.8 °F 27.1 °F 19% 29.88 in 10.0 mi West 13.8 mph 21.9 mph N/A   Clear
4:55 PM 72.1 °F 27.5 °F 19% 29.88 in 10.0 mi West 11.5 mph 19.6 mph N/A   Clear
5:15 PM 70.9 °F 28.8 °F 21% 29.88 in 10.0 mi WNW 9.2 mph 21.9 mph N/A   Clear
5:35 PM 70.2 °F 28.9 °F 22% 29.88 in 10.0 mi WNW 9.2 mph - N/A   Clear
5:55 PM 69.6 °F 28.0 °F 21% 29.89 in 10.0 mi West 11.5 mph - N/A   Scattered Clouds
6:15 PM 68.4 °F 31.6 °F 26% 29.88 in 10.0 mi West 6.9 mph - N/A Rain Light Rain
6:35 PM 68.0 °F 30.9 °F 25% 29.89 in 10.0 mi West 10.4 mph - N/A   Overcast
6:55 PM 67.5 °F 32.0 °F 27% 29.90 in 10.0 mi WNW 8.1 mph - N/A   Overcast
7:15 PM 66.9 °F 33.3 °F 29% 29.90 in 10.0 mi West 5.8 mph - N/A   Overcast
7:35 PM 66.2 °F 34.0 °F 30% 29.90 in 10.0 mi West 4.6 mph - N/A   Mostly Cloudy
7:55 PM 65.3 °F 35.1 °F 33% 29.90 in 10.0 mi WNW 8.1 mph - N/A   Scattered Clouds
8:15 PM 63.3 °F 37.8 °F 39% 29.91 in 10.0 mi NNW 6.9 mph - N/A   Scattered Clouds
8:35 PM 61.3 °F 39.0 °F 44% 29.91 in 10.0 mi NW 4.6 mph - N/A   Mostly Cloudy
8:55 PM 61.5 °F 38.8 °F 43% 29.92 in 10.0 mi NW 3.5 mph - N/A   Scattered Clouds
9:15 PM 60.8 °F 39.2 °F 45% 29.93 in 10.0 mi WNW 5.8 mph - N/A   Scattered Clouds
9:35 PM 60.4 °F 39.7 °F 46% 29.94 in 10.0 mi West 4.6 mph - N/A   Scattered Clouds
9:55 PM 60.1 °F 40.1 °F 48% 29.95 in 10.0 mi WNW 6.9 mph - N/A   Scattered Clouds
10:15 PM 60.3 °F 40.3 °F 48% 29.95 in 10.0 mi WNW 8.1 mph - N/A   Scattered Clouds
10:35 PM 59.9 °F 41.0 °F 50% 29.96 in 10.0 mi WNW 6.9 mph - N/A   Scattered Clouds
10:55 PM 59.5 °F 41.9 °F 52% 29.95 in 10.0 mi NW 6.9 mph - N/A   Mostly Cloudy
11:15 PM 58.1 °F 42.3 °F 56% 29.95 in 10.0 mi NW 8.1 mph - N/A   Scattered Clouds
11:35 PM 56.5 °F 43.2 °F 61% 29.95 in 10.0 mi NW 6.9 mph - N/A   Clear
11:55 PM 56.7 °F 43.7 °F 62% 29.95 in 10.0 mi NW 5.8 mph - N/A   Clear